Wind_Speed
14 14 15 15 15 15 15 15 16 17 17 16 16 16 15 14 16 16 13 14 14 13 13 11 10 11 12 12 13 13 13 12 13 14 9 14 14 18 20 22 22 22 19 20 17
15 15 15 15 15 15 15 15 15 15 17 18 18 18 17 14 14 16 15 16 14 13 11 11 11 12 13 13 15 15 16 13 16 16 15 14 15 18 19 22 25 24 22 21 19
18 18 17 17 17 17 17 17 16 16 16 16 16 18 17 16 15 15 11 10 9 8 8 10 12 13 15 15 17 18 20 18 18 17 18 16 16 20 21 24 23 18 20 22 21
20 20 19 19 19 19 18 18 18 18 18 17 16 16 17 15 10 11 12 12 12 13 13 11 12 15 16 17 18 20 20 19 19 18 21 20 21 21 24 24 25 25 25 24 24
22 22 22 21 21 21 21 21 20 19 19 18 18 17 18 17 16 15 16 16 15 16 15 13 14 15 16 17 18 20 20 20 20 19 21 23 23 23 25 22 24 25 25 25 25
22 22 23 23 23 23 23 22 22 22 21 20 20 19 19 20 17 15 14 15 14 15 15 14 15 16 19 19 18 22 21 19 21 18 21 24 23 26 23 18 23 27 27 27 24
20 21 21 22 22 23 24 24 23 21 21 20 21 20 20 20 19 18 18 16 17 16 16 17 18 17 19 19 21 23 23 23 22 19 23 23 28 30 21 22 22 25 24 23 19
19 20 20 21 20 21 21 20 20 19 19 19 18 19 20 19 21 21 21 21 20 19 19 19 21 21 21 22 22 20 20 14 13 13 15 16 20 16 17 17 21 24 25 23 21
20 21 21 21 20 20 21 20 18 17 17 16 16 16 18 14 13 14 13 14 17 20 21 21 22 23 23 22 17 17 20 16 15 18 19 20 16 13 13 16 22 21 20 21 20
23 24 22 22 21 20 22 22 20 19 18 18 17 8 7 10 13 14 14 14 17 17 22 23 25 24 26 19 21 15 17 15 14 11 15 18 26 23 22 22 22 21 24 24 24
24 25 25 25 25 23 22 23 23 23 17 19 19 18 21 22 22 22 22 20 20 21 24 26 26 27 24 22 23 22 19 22 21 18 26 23 27 31 29 29 31 28 28 28 27
26 27 28 26 25 24 22 22 23 24 23 21 20 17 19 23 27 27 26 28 27 27 25 26 33 28 22 26 28 25 25 27 26 21 22 22 26 30 29 29 26 26 28 31 32
26 25 25 25 26 27 25 23 22 24 25 16 14 16 14 11 9 9 14 24 29 26 30 29 24 16 21 21 28 24 26 27 26 25 26 27 31 24 21 16 14 17 23 29 34
26 28 28 25 23 23 22 19 19 20 17 10 6 7 8 8 5 6 7 7 18 21 20 25 27 32 29 26 20 25 21 20 20 18 18 7 13 18 21 14 12 20 24 24 27
28 24 24 20 20 19 19 16 16 14 6 7 7 10 9 3 6 3 6 10 10 15 18 16 23 22 28 31 22 23 19 16 12 14 20 21 16 15 13 19 10 5 9 15 26
26 29 26 20 16 17 16 15 13 2 7 5 7 7 8 8 8 10 12 13 13 15 19 25 24 23 21 19 23 18 13 13 16 13 17 22 19 16 16 10 11 8 3 6 11
31 32 25 19 17 14 13 11 5 7 3 7 10 12 12 18 20 22 21 15 14 18 20 20 26 28 25 21 21 22 12 4 7 10 15 12 10 22 15 14 17 19 15 12 9
36 31 24 15 13 13 14 8 9 7 12 13 16 22 26 36 32 31 27 19 17 22 27 28 29 23 25 33 26 29 25 11 9 12 12 9 10 9 5 14 6 13 19 15 12
35 22 15 12 12 13 11 6 7 12 15 20 24 25 14 19 18 20 8 4 9 13 8 15 33 28 22 20 26 26 30 27 13 11 12 15 13 13 9 3 11 20 20 19 19
22 17 13 12 11 9 7 11 15 16 20 22 14 14 17 17 20 15 14 15 10 15 4 8 18 31 26 16 24 33 21 11 12 7 8 12 18 14 10 16 15 13 12 15 20
19 14 13 11 7 8 12 16 17 19 20 20 18 17 16 22 18 17 16 18 20 17 15 15 11 27 18 23 25 29 31 21 18 18 9 8 6 15 10 4 11 3 10 14 17
18 14 10 8 11 14 17 15 14 15 16 19 18 21 17 14 22 18 20 19 19 25 22 17 14 19 17 24 15 24 26 36 25 18 25 18 10 10 13 6 15 23 9 7 12
18 13 13 12 19 17 16 13 10 12 13 15 14 17 15 16 14 10 12 12 17 16 10 14 15 20 24 17 24 18 18 17 27 16 24 18 10 18 21 11 6 6 14 14 6
18 11 17 19 22 20 15 11 12 11 14 14 16 15 11 15 16 18 20 18 16 15 14 18 22 25 25 22 17 17 17 20 13 7 19 27 12 25 22 18 18 14 8 7 7
15 16 21 17 19 20 14 10 9 10 11 14 14 11 7 15 15 19 10 13 21 15 16 15 22 27 34 32 30 28 23 20 19 17 8 2 15 15 22 22 20 20 11 2 3
17 20 23 22 21 19 14 11 8 13 15 12 11 9 15 21 19 24 23 23 19 15 17 15 18 20 28 34 35 37 32 26 21 24 24 21 24 20 16 18 32 24 24 9 8
17 24 24 22 20 18 16 12 12 15 13 8 15 17 18 19 20 26 27 26 26 24 24 21 20 19 29 28 30 38 37 34 31 28 29 25 26 16 7 13 9 17 25 24 20
Wind_Direction
305 304 303 301 301 302 301 300 300 300 299 297 295 296 296 294 291 286 284 279 282 284 288 280 261 257 259 261 261 256 248 248 250 263 258 260 245 234 235 236 237 246 254 263 267
297 298 297 297 297 296 296 296 297 300 302 301 299 299 300 301 295 290 283 278 275 276 273 274 264 257 256 258 259 252 252 253 264 262 259 256 244 238 236 237 242 248 255 263 268
292 291 291 292 293 293 295 297 297 298 296 296 299 299 300 302 300 296 291 283 272 260 264 265 262 257 255 257 258 258 257 263 263 263 261 258 253 245 239 239 240 247 258 260 264
290 291 291 289 288 289 291 294 297 297 295 295 295 294 295 298 304 291 285 279 275 269 271 264 260 257 256 257 257 260 262 266 264 260 261 259 254 251 250 246 248 248 251 261 266
286 284 283 283 285 288 288 289 288 287 287 288 289 289 291 296 297 284 280 276 270 267 266 259 258 259 259 259 262 262 265 263 264 260 263 263 262 260 255 254 253 254 258 261 266
286 286 287 288 289 288 286 286 288 291 292 291 289 287 287 295 295 293 285 279 274 263 257 254 256 255 256 257 257 263 269 267 264 265 264 263 266 262 261 258 257 258 259 262 262
294 293 292 290 289 290 292 293 293 291 289 287 287 285 281 287 287 286 282 275 268 263 255 249 249 251 254 265 262 263 266 268 267 270 267 269 266 263 276 259 251 252 251 255 258
296 296 297 299 301 301 300 302 300 299 298 295 290 289 286 282 279 277 277 274 263 257 256 252 252 249 251 259 265 272 274 270 268 268 268 264 266 274 267 255 247 249 248 254 250
298 300 303 304 304 304 304 303 303 302 303 299 295 293 291 281 279 282 277 273 261 251 248 250 249 248 254 257 267 261 261 264 277 270 267 260 261 270 272 255 248 253 248 238 240
297 299 300 299 300 302 301 301 300 300 301 301 298 287 278 277 275 273 278 271 259 249 244 243 244 246 255 236 243 272 264 270 262 277 268 261 267 265 256 258 253 249 246 243 242
299 302 303 300 300 300 299 300 300 301 299 298 287 284 284 278 266 262 264 264 261 251 242 243 239 239 259 248 255 267 270 274 272 280 279 269 269 271 271 266 265 255 250 252 250
303 306 308 310 310 310 313 310 309 305 306 303 291 281 270 266 265 264 261 262 261 261 251 246 244 256 248 253 264 259 267 272 281 279 274 284 280 277 274 274 269 263 252 248 249
298 302 307 310 306 308 312 311 309 310 313 310 278 271 263 255 264 265 259 250 253 253 256 250 257 259 259 270 257 252 256 269 273 280 284 289 289 285 281 277 262 255 252 244 244
294 299 302 300 301 300 303 306 309 318 311 288 249 243 254 252 256 281 280 289 253 253 247 260 257 254 254 256 247 257 260 268 287 278 275 282 292 284 283 283 272 261 250 245 242
293 295 304 300 295 296 301 307 313 320 285 282 245 246 254 265 277 249 283 285 296 272 254 258 275 263 251 254 249 255 260 273 257 266 278 267 269 284 281 290 227 280 275 245 239
279 296 295 290 286 288 293 297 302 293 245 260 241 236 240 267 277 277 300 301 302 279 271 269 259 257 256 261 242 247 244 270 270 265 254 265 236 276 259 254 241 297 11 292 240
273 286 285 282 276 276 279 292 286 228 264 255 249 266 279 282 288 281 278 287 290 291 268 274 261 263 252 251 238 219 218 217 253 228 259 266 234 248 270 254 257 261 265 289 267
278 272 272 254 260 274 284 287 238 236 239 267 276 281 292 284 286 287 283 288 269 259 268 267 272 248 243 233 230 219 211 188 229 248 256 252 241 256 165 226 241 275 269 255 242
274 251 230 244 267 279 288 235 243 260 270 274 280 296 286 285 289 297 313 311 265 269 266 279 254 257 246 247 224 230 223 234 245 240 272 250 259 264 252 259 294 281 264 251 222
225 205 224 243 263 269 281 254 252 262 270 277 291 279 286 293 297 302 287 274 257 261 243 270 285 256 261 252 232 223 229 189 198 216 221 234 240 237 266 298 324 282 252 203 187
196 206 223 240 257 269 275 263 268 272 275 283 279 274 279 296 285 284 267 273 277 273 298 310 274 263 277 246 239 222 227 222 220 220 231 230 239 222 212 337 343 272 186 180 182
211 209 215 235 263 277 258 254 261 270 277 289 289 284 281 284 287 278 270 259 276 284 289 295 285 282 282 243 246 234 240 220 211 200 227 247 196 174 164 115 49 60 76 183 185
210 217 232 240 252 252 246 251 263 277 286 293 303 292 284 279 284 281 280 283 274 283 279 275 265 281 273 272 236 242 238 254 244 251 218 208 227 201 212 201 240 11 41 51 112
213 225 232 240 251 254 243 240 258 273 288 317 316 306 296 285 268 272 279 282 285 278 268 266 260 252 258 266 302 302 288 296 321 277 232 217 168 184 192 224 242 269 341 24 32
221 222 240 244 246 243 221 240 262 280 286 307 302 304 294 278 278 272 269 287 297 288 271 266 265 261 257 263 275 280 283 287 284 288 291 298 222 225 192 209 218 248 291 342 351
219 230 248 249 244 237 238 238 252 277 279 297 303 285 275 275 270 278 289 287 279 275 273 265 270 270 267 260 262 272 271 272 271 285 276 281 282 233 237 238 232 232 253 249 169
234 246 250 246 240 241 245 236 252 273 288 315 308 299 294 286 279 276 275 273 265 257 264 263 263 268 273 266 266 261 262 265 260 254 265 276 288 213 236 252 226 229 235 244 247
Height
3166 3165 3164 3162 3161 3160 3159 3157 3156 3155 3154 3152 3150 3149 3148 3148 3146 3145 3145 3145 3144 3144 3144 3143 3143 3143 3143 3143 3144 3144 3145 3143 3143 3143 3144 3143 3145 3146 3147 3148 3149 3150 3151 3151 3150
3162 3161 3160 3159 3158 3156 3155 3153 3152 3151 3150 3150 3148 3147 3145 3144 3143 3142 3142 3141 3141 3141 3141 3141 3140 3141 3141 3141 3141 3142 3140 3140 3139 3139 3139 3140 3141 3141 3144 3144 3145 3146 3148 3147 3147
3159 3158 3157 3156 3156 3154 3153 3151 3150 3148 3146 3145 3144 3143 3142 3141 3140 3139 3138 3138 3138 3138 3138 3138 3137 3137 3137 3137 3138 3137 3138 3137 3136 3136 3136 3136 3137 3137 3139 3140 3142 3143 3143 3143 3142
3156 3155 3154 3153 3151 3149 3148 3147 3146 3146 3145 3143 3140 3139 3138 3137 3140 3136 3136 3136 3136 3135 3135 3135 3135 3135 3134 3133 3132 3133 3133 3134 3134 3133 3132 3133 3132 3133 3133 3136 3136 3137 3138 3138 3138
3151 3150 3149 3147 3146 3145 3144 3143 3142 3140 3140 3139 3138 3137 3135 3136 3135 3133 3132 3132 3131 3132 3132 3133 3133 3132 3132 3130 3130 3128 3128 3128 3129 3129 3128 3128 3128 3128 3128 3131 3132 3132 3133 3133 3133
3147 3146 3146 3145 3144 3142 3140 3138 3137 3137 3137 3136 3135 3134 3132 3132 3130 3130 3129 3129 3128 3127 3128 3129 3130 3129 3128 3127 3128 3125 3125 3124 3123 3125 3124 3124 3124 3122 3123 3127 3126 3126 3127 3128 3128
3144 3143 3141 3140 3138 3137 3137 3136 3134 3132 3131 3130 3130 3129 3128 3129 3127 3126 3125 3124 3124 3124 3125 3124 3124 3126 3125 3125 3124 3123 3121 3120 3119 3120 3119 3120 3117 3115 3120 3119 3119 3119 3121 3122 3122
3139 3138 3136 3136 3135 3134 3132 3131 3130 3129 3127 3126 3125 3124 3123 3123 3121 3120 3121 3120 3119 3119 3120 3120 3120 3120 3121 3122 3121 3122 3119 3118 3114 3115 3114 3116 3115 3114 3113 3113 3113 3113 3114 3116 3118
3136 3134 3134 3132 3131 3130 3128 3126 3125 3124 3124 3122 3121 3120 3120 3119 3117 3116 3116 3115 3115 3115 3114 3116 3117 3117 3117 3117 3119 3117 3116 3115 3114 3112 3111 3110 3109 3109 3109 3109 3109 3109 3109 3110 3112
3133 3130 3130 3128 3127 3126 3122 3121 3120 3120 3119 3118 3116 3118 3115 3114 3113 3112 3112 3111 3111 3110 3110 3111 3111 3112 3114 3115 3113 3114 3114 3113 3112 3110 3106 3104 3102 3103 3106 3105 3104 3105 3104 3105 3107
3128 3125 3124 3122 3120 3119 3119 3116 3117 3116 3115 3113 3113 3111 3110 3108 3107 3106 3107 3106 3108 3108 3106 3105 3106 3102 3108 3110 3110 3111 3109 3109 3110 3107 3104 3101 3097 3097 3098 3098 3097 3098 3099 3099 3100
3124 3122 3119 3118 3115 3113 3113 3111 3110 3108 3107 3107 3103 3101 3101 3101 3100 3099 3100 3102 3102 3101 3104 3103 3095 3101 3103 3104 3103 3104 3104 3103 3103 3103 3099 3096 3091 3089 3090 3089 3090 3090 3090 3091 3093
3117 3116 3113 3112 3110 3108 3107 3107 3104 3101 3100 3099 3098 3095 3093 3094 3094 3095 3095 3093 3093 3095 3095 3096 3097 3096 3097 3096 3097 3098 3098 3098 3098 3099 3095 3091 3085 3083 3083 3083 3082 3081 3080 3081 3083
3111 3111 3108 3106 3107 3103 3102 3102 3100 3098 3095 3093 3090 3092 3093 3091 3090 3091 3091 3093 3090 3090 3094 3090 3091 3090 3091 3090 3094 3091 3095 3092 3092 3093 3092 3088 3080 3079 3078 3077 3077 3075 3073 3073 3074
3105 3105 3103 3100 3100 3099 3099 3098 3098 3096 3094 3091 3088 3087 3088 3091 3090 3089 3088 3089 3088 3087 3089 3085 3082 3086 3085 3084 3088 3088 3088 3088 3088 3088 3087 3086 3085 3073 3073 3072 3072 3069 3066 3064 3065
3100 3099 3099 3097 3097 3096 3095 3094 3094 3097 3090 3087 3083 3083 3084 3084 3086 3084 3084 3084 3084 3082 3080 3077 3081 3080 3081 3082 3083 3082 3082 3084 3085 3084 3079 3078 3079 3067 3069 3067 3069 3067 3063 3062 3061
3094 3093 3093 3092 3092 3092 3091 3091 3094 3092 3087 3082 3081 3081 3083 3081 3082 3081 3081 3082 3085 3082 3077 3075 3071 3071 3074 3077 3077 3078 3081 3078 3082 3077 3067 3071 3072 3064 3065 3062 3063 3062 3060 3059 3059
3086 3086 3087 3087 3089 3088 3086 3088 3090 3081 3082 3081 3080 3080 3080 3077 3075 3073 3073 3076 3076 3074 3072 3070 3066 3067 3062 3061 3070 3070 3072 3071 3069 3066 3065 3068 3063 3059 3056 3055 3057 3057 3054 3054 3055
3078 3079 3080 3081 3082 3084 3085 3085 3082 3079 3078 3076 3077 3075 3079 3076 3073 3069 3070 3070 3067 3064 3069 3064 3056 3060 3059 3059 3062 3065 3063 3065 3065 3065 3067 3061 3058 3057 3054 3052 3052 3049 3048 3047 3050
3068 3072 3077 3078 3078 3077 3080 3079 3076 3076 3074 3071 3072 3071 3073 3074 3071 3070 3067 3066 3065 3062 3059 3062 3055 3051 3053 3053 3052 3055 3060 3060 3060 3059 3056 3050 3051 3050 3050 3049 3046 3042 3041 3040 3045
3062 3066 3071 3073 3074 3074 3074 3074 3073 3073 3071 3070 3067 3065 3063 3068 3069 3065 3063 3063 3059 3057 3058 3056 3054 3047 3047 3047 3047 3048 3048 3048 3050 3049 3040 3040 3045 3044 3048 3050 3045 3040 3040 3042 3045
3058 3061 3065 3069 3071 3069 3067 3068 3069 3067 3067 3067 3060 3063 3056 3060 3061 3060 3058 3059 3057 3052 3053 3055 3050 3043 3040 3040 3038 3038 3036 3037 3034 3036 3038 3040 3039 3040 3043 3047 3046 3042 3041 3043 3045
3053 3057 3059 3062 3063 3059 3059 3062 3062 3060 3061 3063 3056 3057 3052 3055 3057 3052 3051 3052 3051 3051 3049 3050 3046 3039 3034 3035 3032 3030 3030 3027 3023 3025 3027 3034 3034 3034 3036 3042 3043 3043 3044 3045 3046
3046 3050 3053 3056 3054 3054 3052 3054 3055 3054 3057 3055 3052 3050 3047 3049 3051 3046 3048 3047 3045 3044 3044 3044 3041 3039 3034 3028 3029 3028 3026 3023 3030 3026 3023 3025 3029 3031 3030 3040 3041 3041 3043 3045 3046
3038 3040 3047 3046 3045 3049 3048 3048 3047 3051 3051 3052 3048 3046 3044 3045 3045 3044 3042 3041 3041 3040 3038 3038 3034 3032 3029 3028 3025 3023 3024 3024 3023 3022 3023 3022 3023 3027 3029 3034 3038 3039 3041 3044 3044
3033 3036 3038 3037 3039 3048 3042 3041 3041 3047 3047 3045 3045 3041 3041 3040 3041 3038 3037 3036 3035 3034 3033 3032 3028 3025 3021 3021 3020 3014 3017 3019 3020 3015 3019 3021 3017 3020 3026 3027 3032 3037 3038 3042 3042
3026 3028 3029 3030 3034 3039 3036 3034 3036 3041 3042 3038 3038 3036 3036 3036 3033 3031 3030 3028 3026 3025 3025 3026 3023 3020 3013 3013 3013 3007 3007 3009 3013 3017 3013 3018 3019 3019 3022 3025 3027 3031 3033 3036 3040